Location: Bieg
(49.3499°N, 10.3835°E)
Time: 00:54:04
(UTC+00:00)

NPP - Pass Details

Date: 23 May 2024
Orbit: 826 x 827 km, 98.7° (Epoch: 15 June)

Event Time Altitude Azimuth Distance (km) Brightness Sun altitude
Rises 00:59:05 0° 16° (NNE) 3,379 8.6 -16.3°
Reaches altitude 10° 01:01:28 10° 20° (NNE) 2,441 7.4 -16.1°
Maximum altitude 01:06:51 67° 103° (ESE) 898 3.9 -15.7°
Enters shadow 01:10:34 20° 182° (S) 1,806 4.9 -15.5°
